Location: Altmatt
(47.1333°N, 8.7000°E)
Time: 08:43:26
(UTC+00:00)

MOS 1-B Rocket - Pass Details

Date: 13 July 2020
Orbit: 891 x 1605 km, 99.1° (Epoch: 04 August)

Event Time Altitude Azimuth Distance (km) Brightness Sun altitude
Rises 22:09:52 0° 15° (NNE) 4,249 8.2 -18.8°
Reaches altitude 10° 22:12:44 10° 17° (NNE) 3,174 7.4 -19.0°
Maximum altitude 22:19:53 74° 103° (ESE) 1,116 4.2 -19.4°
Enters shadow 22:23:07 31° 183° (S) 1,706 4.7 -19.5°
